Content
SEND FEEDBACK

Daily
Averages
Monthly
Summary
United States of America

HARTFORD CITY, INDIANA


Home > North America > United States > Indiana
Elevation: 880 feet     Latitude: 40 26N     Longitude: 085 22W

WEATHER
 
SELECT A DAY
Number of Records: 193,000;   Date Range: 1/1/95 - 7/7/14
 
SHARE

PRINT THIS DATA

[ ← Previous Day ]
WEATHER ALMANAC - JANUARY 31, 2013
[ Next Day → ]
[ °C ]   °F
Weather ElementAverageHighLow
Temperature23.1 °F28.4 °F (12:17 am)12 °F (11:53 pm)
Dewpoint13.2 °F21.2 °F (12:17 am) (7:00 pm)
Humidity66.1 %80 % (11:34 am)58 % (2:53 pm)
Barometer29.82 in30.09 in (11:53 pm)29.56 in (12:17 am)
Wind Speed20.2 mph33.4 mph (12:17 am)
Wind Gust42.6 mph (2:42 am)
Weather ElementAverage
Visibility5.7 mi
Wind DirectionW (274.9 °)

Weather ElementTotal
Precipitation---
Heating Degree Days44.8 (Base 65)
Averaged from 72 records on January 31, 2013
WEATHER CONDITIONS BREAKOUT
WIND DIRECTION BREAKOUT
WEATHER BY HOUR - JANUARY 31, 2013
[ °C ]   °F
Local TimeTemperatureDewpointHumidityBarometerVisibilityWind DirectionWind SpeedGust SpeedPrecipitationEventsConditions
12:17 AM28.4 °F21.2 °F74 %29.56 in7.0 miWest (280°)33.4 mph40.3 mph0.00 inSnowLight Snow
12:53 AM28.0 °F19.9 °F72 %29.58 in5.0 miWest (270°)27.6 mph39.1 mph0.00 inSnowLight Snow
1:27 AM26.6 °F19.4 °F74 %29.60 in6.0 miWest (280°)20.7 mph35.7 mph0.00 inSnowLight Snow
1:53 AM26.1 °F18.0 °F71 %29.62 in4.0 miWNW (290°)25.3 mph40.3 mph0.00 inSnowLight Snow
2:10 AM26.6 °F17.6 °F69 %29.63 in2.5 miWest (270°)27.6 mph36.8 mph0.00 inSnowLight Snow
2:42 AM24.8 °F15.8 °F69 %29.66 in5.0 miWest (270°)29.9 mph42.6 mph0.00 inSnowLight Snow
2:53 AM25.0 °F15.1 °F66 %29.67 in7.0 miWest (280°)28.8 mph40.3 mph0.00 inSnowLight Snow
3:29 AM24.8 °F14.0 °F64 %29.68 in9.0 miWNW (290°)24.2 mph32.2 mph0.00 inOvercast
3:53 AM25.0 °F14.0 °F63 %29.68 in9.0 miWest (280°)20.7 mph29.9 mph0.00 inSnowLight Snow
4:19 AM24.8 °F15.8 °F69 %29.69 in3.0 miWest (260°)21.9 mph33.4 mph0.00 inSnowLight Snow
4:26 AM24.8 °F15.8 °F69 %29.69 in2.5 miWest (270°)21.9 mph31.1 mph0.00 inSnowLight Snow
4:46 AM24.8 °F14.0 °F64 %29.69 in8.0 miWest (270°)28.8 mph35.7 mph0.00 inSnowLight Snow
4:53 AM25.0 °F12.9 °F60 %29.71 in9.0 miWest (270°)26.5 mph35.7 mph0.00 inSnowLight Snow
5:29 AM24.8 °F15.8 °F69 %29.71 in4.0 miWest (270°)19.6 mph31.1 mph0.00 inSnowLight Snow
5:38 AM24.8 °F15.8 °F69 %29.71 in2.0 miWest (260°)23.0 mph32.2 mph0.00 inSnowLight Snow
5:50 AM23.0 °F12.2 °F63 %29.71 in5.0 miWest (260°)21.9 mph33.4 mph0.00 inSnowLight Snow
5:53 AM23.0 °F12.9 °F65 %29.73 in6.0 miWest (260°)25.3 mph33.4 mph0.00 inSnowLight Snow
6:19 AM21.2 °F12.2 °F68 %29.74 in3.0 miWest (280°)23.0 mph35.7 mph0.00 inSnowLight Snow
6:32 AM21.2 °F12.2 °F68 %29.75 in2.5 miWest (270°)19.6 mph34.5 mph0.00 inSnowLight Snow
6:37 AM21.2 °F10.4 °F63 %29.75 in3.0 miWest (270°)20.7 mph36.8 mph0.00 inSnowLight Snow
6:53 AM21.0 °F10.0 °F63 %29.78 in9.0 miWest (270°)21.9 mph34.5 mph0.00 inSnowLight Snow
7:24 AM21.2 °F12.2 °F68 %29.77 in7.0 miWest (270°)18.4 mph33.4 mph0.00 inSnowLight Snow
7:37 AM21.2 °F14.0 °F74 %29.78 in1.8 miWest (270°)20.7 mph33.4 mph0.00 inSnowLight Snow
7:45 AM21.2 °F12.2 °F68 %29.78 in3.0 miWest (280°)27.6 mph36.8 mph0.00 inSnowLight Snow
7:53 AM21.0 °F9.0 °F60 %29.81 in9.0 miWest (280°)23.0 mph36.8 mph0.00 inOvercast
8:04 AM21.2 °F10.4 °F63 %29.79 in10.0 miWest (270°)18.4 mph33.4 mphOvercast
8:14 AM21.2 °F10.4 °F63 %29.80 in10.0 miWest (280°)15.0 mph26.5 mphOvercast
8:53 AM21.9 °F12.9 °F68 %29.83 in10.0 miWest (260°)11.5 mph21.9 mphOvercast
9:13 AM21.2 °F12.2 °F68 %29.81 in5.0 miWest (260°)13.8 mph25.3 mph0.00 inSnowLight Snow
9:38 AM23.0 °F12.2 °F63 %29.82 in9.0 miWest (260°)15.0 mph28.8 mph0.00 inOvercast
9:53 AM23.0 °F14.0 °F68 %29.84 in5.0 miWest (260°)15.0 mph31.1 mph0.00 inSnowLight Snow
10:05 AM23.0 °F14.0 °F68 %29.83 in1.8 miWSW (250°)17.3 mph27.6 mph0.00 inSnowLight Snow
10:53 AM24.1 °F17.1 °F75 %29.86 in2.5 miWest (260°)16.1 mph23.0 mph0.00 inSnowLight Snow
11:01 AM24.8 °F15.8 °F69 %29.84 in3.0 miWest (270°)20.7 mph27.6 mph0.00 inSnowLight Snow
11:07 AM24.8 °F15.8 °F69 %29.84 in1.8 miWest (260°)15.0 mph27.6 mph0.00 inSnowLight Snow
11:17 AM24.8 °F17.6 °F74 %29.85 in0.5 miWSW (250°)15.0 mph23.0 mph0.00 inSnowSnow
11:26 AM24.8 °F17.6 °F74 %29.85 in0.2 miWest (260°)13.8 mph23.0 mph0.00 inSnowHeavy Snow
11:34 AM23.0 °F17.6 °F80 %29.85 in0.5 miWest (260°)13.8 mph20.7 mph0.00 inSnowSnow
11:44 AM23.0 °F17.6 °F80 %29.85 in0.2 miWest (260°)11.5 mph19.6 mph0.00 inSnowHeavy Snow
11:51 AM24.8 °F17.6 °F74 %29.85 in0.8 miWest (260°)11.5 mph19.6 mph0.00 inSnowLight Snow
11:53 AM24.1 °F18.0 °F77 %29.88 in1.2 miWSW (250°)13.8 mph0.00 inSnowLight Snow
11:56 AM24.8 °F17.6 °F74 %29.85 in3.0 miWest (260°)16.1 mph20.7 mph0.00 inSnowLight Snow
12:07 PM24.8 °F17.6 °F74 %29.85 in10.0 miWest (260°)12.7 mph19.6 mph0.00 inOvercast
12:48 PM26.6 °F14.0 °F59 %29.84 in1.8 miWest (270°)28.8 mph38.0 mph0.00 inSnowLight Snow
12:53 PM26.1 °F14.0 °F60 %29.87 in1.5 miWest (270°)21.9 mph38.0 mph0.00 inSnowLight Snow
12:59 PM26.6 °F14.0 °F59 %29.84 in3.0 miWest (270°)20.7 mph35.7 mph0.00 inSnowLight Snow
1:25 PM26.6 °F15.8 °F64 %29.85 in2.0 miWest (280°)17.3 mph32.2 mph0.00 inSnowLight Snow
1:28 PM26.6 °F17.6 °F69 %29.85 in1.5 miWest (270°)16.1 mph28.8 mph0.00 inSnowLight Snow
1:34 PM26.6 °F15.8 °F64 %29.84 in2.0 miWest (270°)20.7 mph32.2 mph0.00 inSnowLight Snow
1:42 PM26.6 °F15.8 °F64 %29.85 in6.0 miWest (280°)18.4 mph26.5 mph0.00 inSnowLight Snow
1:53 PM26.1 °F15.1 °F63 %29.87 in9.0 miWest (270°)24.2 mph34.5 mph0.00 inOvercast
2:53 PM27.0 °F14.0 °F58 %29.87 in9.0 miWest (280°)21.9 mph35.7 mph0.00 inSnowLight Snow
3:17 PM26.6 °F14.0 °F59 %29.85 in9.0 miWest (280°)25.3 mph35.7 mph0.00 inSnowLight Snow
3:53 PM26.1 °F14.0 °F60 %29.88 in9.0 miWest (270°)18.4 mph33.4 mph0.00 inSnowLight Snow
4:15 PM26.6 °F14.0 °F59 %29.86 in10.0 miWest (270°)23.0 mph32.2 mph0.00 inOvercast
4:22 PM26.6 °F14.0 °F59 %29.85 in10.0 miWest (270°)23.0 mph32.2 mph0.00 inOvercast
4:53 PM25.0 °F12.9 °F60 %29.88 in10.0 miWest (280°)17.3 mph27.6 mph0.00 inOvercast
5:09 PM24.8 °F12.2 °F59 %29.86 in10.0 miWest (270°)16.1 mph25.3 mphOvercast
5:16 PM24.8 °F12.2 °F59 %29.86 in10.0 miWest (280°)17.3 mph26.5 mphOvercast
5:53 PM24.1 °F12.9 °F62 %29.90 in10.0 miWNW (290°)15.0 mphOvercast
6:53 PM23.0 °F12.0 °F63 %29.93 in10.0 miWNW (300°)18.4 mph31.1 mphOvercast
7:12 PM21.2 °F12.2 °F68 %29.92 in9.0 miNW (310°)20.7 mph29.9 mphOvercast
7:53 PM19.0 °F8.1 °F62 %29.98 in8.0 miWNW (300°)18.4 mph31.1 mph0.00 inSnowLight Snow
8:37 PM17.6 °F6.8 °F63 %29.94 in10.0 miNW (320°)18.4 mph28.8 mph0.00 inOvercast
8:53 PM17.1 °F6.1 °F62 %29.98 in8.0 miWNW (300°)17.3 mph32.2 mph0.00 inSnowLight Snow
9:06 PM17.6 °F6.8 °F63 %29.95 in9.0 miWNW (300°)24.2 mph31.1 mph0.00 inOvercast
9:53 PM16.0 °F5.0 °F62 %30.01 in7.0 miWNW (290°)21.9 mph31.1 mph0.00 inSnowLight Snow
10:30 PM14.0 °F5.0 °F67 %30.00 in1.8 miWNW (300°)21.9 mph33.4 mph0.00 inSnowLight Snow
10:41 PM14.0 °F3.2 °F62 %30.01 in3.0 miWNW (290°)18.4 mph27.6 mph0.00 inSnowLight Snow
10:53 PM12.9 °F3.0 °F65 %30.05 in10.0 miWNW (300°)15.0 mph24.2 mph0.00 inMostly Cloudy
11:24 PM12.2 °F1.4 °F62 %30.03 in7.0 miWNW (300°)24.2 mph33.4 mph0.00 inSnowLight Snow
11:53 PM12.0 °F0.0 °F59 %30.09 in10.0 miWNW (300°)20.7 mph29.9 mph0.00 inPartly Cloudy
Hourly data recorded from KMIE, located miles away from Hartford City, Indiana







STORIES FROM OUR PARTNERS